Wind_Speed
37 43 48 53 58 62 68 72 74 72 71 70 64 57 53 51 52 48 49 48 46 45 43 40 37 33 31 31 31 32 33 34 34 33 33 33 32 29 25 23 22 21 15 16
39 45 51 56 60 65 70 72 73 73 70 65 59 54 50 50 50 47 48 47 48 47 44 42 39 35 34 34 35 35 36 36 36 33 33 33 32 30 25 22 21 20 15 15
45 50 55 58 62 67 71 74 73 72 68 63 56 52 49 49 48 45 45 47 49 49 47 45 42 40 38 38 39 39 40 40 39 36 34 34 33 31 28 24 21 20 16 18
49 53 58 61 64 69 74 71 70 68 64 57 52 50 49 48 46 45 47 49 51 51 49 47 46 45 44 44 44 43 42 41 40 39 38 36 35 34 31 27 25 22 19 21
53 57 60 63 67 72 75 72 70 65 56 49 46 47 48 47 45 46 48 51 53 53 52 51 51 50 50 50 49 48 46 45 44 42 39 37 36 36 34 31 29 27 25 25
55 58 61 65 68 73 75 70 67 57 49 46 45 45 46 47 47 48 50 53 54 54 54 55 55 55 56 55 54 54 52 50 47 44 41 40 37 37 36 34 32 32 31 30
57 59 62 66 70 73 71 70 65 52 46 46 45 46 48 49 51 52 54 56 56 57 58 58 59 59 59 59 58 57 56 53 51 48 45 44 41 39 38 37 36 35 36 36
59 61 64 67 70 72 72 70 60 48 43 44 45 46 49 53 55 56 57 58 58 58 59 60 61 62 61 60 59 58 57 55 53 51 48 47 45 43 42 41 39 38 38 39
59 61 64 67 70 75 73 67 56 43 41 43 45 48 52 56 59 59 58 58 59 61 62 61 59 57 55 54 53 51 49 48 46 45 46 47 47 46 46 45 44 42 41 41
60 62 65 68 72 75 71 66 54 43 41 43 47 51 55 59 60 59 58 60 61 58 53 51 51 52 52 53 52 50 47 43 40 38 37 38 40 44 47 49 48 47 45 45
60 62 65 68 72 74 72 66 54 44 42 44 48 54 57 60 60 60 61 58 51 47 49 51 52 52 52 53 53 52 49 44 39 36 34 33 33 33 37 43 48 50 50 49
60 63 65 68 71 73 71 65 54 44 42 45 50 56 59 61 60 60 54 45 43 46 48 50 51 52 53 53 53 51 49 45 40 36 35 35 34 33 31 31 35 40 48 52
61 63 65 68 70 72 70 60 49 43 43 46 52 57 60 60 59 52 42 41 43 45 47 49 52 55 56 55 53 51 49 46 42 39 37 36 34 32 31 29 28 29 32 39
61 63 64 67 70 71 66 56 48 44 44 48 54 58 59 57 50 40 38 41 43 45 46 49 52 55 58 58 56 53 50 48 46 44 41 38 35 33 30 27 26 26 26 27
61 61 63 65 69 70 63 53 46 44 46 51 55 57 56 50 39 35 37 40 43 46 48 50 53 55 59 60 59 55 51 50 50 48 45 41 38 35 32 30 28 27 26 25
59 60 61 65 70 67 57 48 43 44 48 53 54 54 51 42 34 35 38 39 42 45 48 51 54 57 59 61 60 58 55 53 54 52 49 45 41 38 35 33 31 29 28 27
57 58 61 65 67 60 50 44 43 46 50 52 52 49 43 34 33 36 38 39 42 44 47 51 55 58 60 60 62 61 57 53 53 53 53 49 44 41 38 35 33 32 31 29
56 57 60 63 62 53 46 43 44 47 50 51 49 45 36 31 32 34 37 40 43 45 48 52 56 59 61 62 64 62 57 53 53 53 52 48 44 40 37 35 34 32 31 30
54 56 58 61 57 49 44 44 46 47 49 49 47 40 32 29 30 33 36 39 42 44 47 51 54 58 61 63 64 62 59 59 58 58 56 50 45 41 39 37 35 31 28 27
53 54 57 59 53 46 44 45 46 48 48 47 44 35 28 28 30 33 36 39 43 45 47 49 52 56 60 61 64 66 63 61 60 60 57 52 47 44 42 39 34 30 26 22
51 53 56 55 49 44 43 44 46 48 47 45 41 31 26 26 28 32 35 39 43 45 47 48 51 55 58 61 66 67 62 59 60 62 60 55 51 48 46 41 36 31 26 20
50 52 54 52 45 41 42 44 47 47 45 43 38 28 24 25 28 32 36 38 40 43 46 47 49 53 58 60 63 66 62 58 58 60 63 63 59 54 50 46 40 35 30 24
48 51 52 48 43 40 41 45 46 45 43 41 33 26 23 24 28 33 36 37 38 42 45 45 46 51 56 58 60 64 63 59 56 55 58 61 63 62 58 54 49 43 37 32
47 50 50 46 40 38 41 44 45 43 41 38 28 22 20 23 28 33 35 35 37 41 43 43 44 47 52 56 57 60 64 61 56 54 55 57 59 60 61 61 59 56 51 47
46 49 48 42 38 37 41 43 43 41 40 33 23 19 21 24 28 31 33 32 35 40 41 41 41 42 46 52 57 58 60 63 58 53 53 54 56 57 57 57 57 58 58 57
46 47 45 39 35 37 40 42 41 39 37 28 19 17 19 22 26 30 31 32 35 38 40 39 38 39 42 48 54 56 56 58 61 57 53 52 53 54 54 54 54 53 52 51
45 46 42 35 33 36 39 40 39 38 34 24 15 14 17 20 24 28 30 32 34 37 39 39 38 37 39 44 49 53 55 55 56 59 58 54 51 51 52 52 52 52 51 49
Wind_Direction
329 329 330 331 330 330 328 327 327 329 330 330 328 327 329 332 333 333 334 335 337 338 338 338 336 332 328 325 323 322 321 318 314 310 305 303 303 304 313 313 310 314 292 260
332 330 332 332 332 331 329 328 330 333 333 332 332 333 334 334 334 333 334 337 338 338 337 336 334 332 329 326 323 321 319 317 314 309 304 300 298 300 301 303 304 304 286 256
333 331 333 334 334 331 329 331 334 336 336 338 337 334 333 334 333 332 336 338 338 338 337 335 332 329 327 325 322 318 315 314 312 308 303 299 295 294 293 293 294 297 285 246
333 333 333 336 333 333 331 333 335 337 340 341 336 335 336 336 333 331 333 333 333 333 333 331 329 327 324 322 320 317 315 312 309 305 302 300 295 291 288 284 281 281 272 259
334 334 335 336 336 334 333 336 337 339 341 341 341 340 340 338 333 331 330 330 330 330 329 327 325 322 320 318 315 314 311 308 306 302 298 296 294 290 285 280 274 270 267 263
334 333 335 337 336 334 333 335 338 339 340 342 346 345 341 339 335 331 330 329 328 327 325 323 321 319 316 314 312 310 308 305 302 298 293 291 289 286 283 279 272 264 260 258
334 334 336 337 336 334 334 336 339 339 341 343 343 342 342 340 336 333 330 329 328 326 324 322 320 318 316 313 311 308 306 303 299 295 290 286 284 281 278 274 270 263 257 254
335 335 336 337 335 335 335 337 337 338 341 342 342 342 343 340 337 333 331 330 329 327 326 323 321 320 318 317 315 312 308 303 297 292 286 282 279 275 272 270 267 262 257 252
336 335 334 336 336 334 336 338 337 336 339 341 341 342 344 342 339 336 335 333 331 329 328 328 329 330 331 330 328 324 319 314 308 300 291 283 277 272 269 266 263 259 256 252
335 335 334 336 335 334 338 339 335 330 334 338 340 342 343 342 340 338 337 334 332 334 339 343 344 345 344 343 342 338 334 327 320 315 309 299 288 277 270 265 262 258 255 253
336 335 335 335 333 335 338 339 332 327 331 337 340 342 343 341 341 339 337 337 342 349 353 353 352 350 350 349 349 347 346 343 337 331 327 321 311 299 285 273 265 260 256 252
335 335 334 334 333 336 339 338 333 328 331 336 340 342 342 342 341 340 342 350 356 358 357 357 357 357 356 354 352 352 352 351 347 342 339 336 330 322 310 295 281 269 261 255
335 334 334 334 335 338 339 337 334 331 332 335 340 342 342 342 342 345 354 359 359 358 358 0 1 1 360 358 356 355 355 354 353 350 345 341 336 332 326 317 305 290 276 265
334 334 334 335 337 338 338 338 337 334 334 337 340 342 343 344 347 355 359 360 359 360 1 0 1 2 1 1 360 359 359 358 356 353 348 344 340 336 333 329 324 316 304 288
333 333 334 336 337 338 339 339 338 336 337 339 341 342 344 346 354 359 360 359 1 3 2 1 1 1 2 2 2 1 0 0 359 355 350 346 342 339 337 335 332 327 322 314
332 332 334 337 338 338 341 341 341 341 339 340 341 343 345 350 357 360 360 360 1 2 2 1 1 1 2 3 2 1 359 357 358 357 353 348 344 340 336 332 330 327 323 319
331 333 336 338 338 340 342 342 343 341 340 340 343 345 348 355 359 1 360 360 1 2 4 4 4 3 4 3 2 2 0 358 356 355 353 349 344 339 335 330 326 321 318 314
330 333 337 337 338 339 341 342 341 340 340 341 344 346 352 357 1 1 1 1 1 2 3 5 5 4 3 3 4 3 2 0 359 358 355 350 345 341 337 332 326 318 311 307
330 333 336 336 337 338 340 341 340 340 340 343 345 349 355 358 1 2 3 3 2 2 2 4 5 4 4 4 4 4 5 5 5 2 359 356 353 349 345 339 333 326 318 310
330 333 335 337 338 338 339 340 340 340 342 345 345 351 355 358 0 1 2 2 3 3 4 5 5 6 6 6 6 8 9 9 9 8 5 3 1 358 355 350 346 340 332 322
329 332 335 337 336 336 338 340 340 341 343 345 346 353 357 359 360 0 1 1 2 4 5 5 6 8 8 9 11 12 12 14 15 14 15 14 12 9 6 4 1 357 351 342
328 332 335 337 335 336 338 340 340 342 344 345 348 353 356 359 360 1 360 360 2 5 6 6 8 11 12 12 14 14 15 16 16 18 22 24 23 21 19 18 17 15 13 10
328 332 335 336 335 337 339 340 341 343 345 345 349 354 358 359 358 359 358 359 4 8 7 8 11 14 14 15 16 16 18 19 19 22 26 28 30 32 31 31 31 32 32 33
328 332 335 334 334 337 339 340 341 344 345 345 351 354 356 355 356 358 359 1 8 9 7 9 13 16 16 16 17 19 21 22 23 26 29 31 32 34 37 40 42 45 48 50
327 332 334 332 333 336 338 340 342 344 344 346 351 354 358 358 359 1 2 7 11 9 7 9 13 15 16 15 18 21 23 24 24 26 31 33 34 35 37 40 44 48 52 55
327 331 332 331 332 335 338 341 343 344 344 346 350 356 0 1 3 4 6 10 11 8 8 10 12 14 15 16 17 20 23 25 27 28 31 33 35 36 38 40 42 45 48 52
327 329 330 329 330 334 338 340 342 343 343 344 345 355 1 3 6 7 8 11 10 8 9 11 13 13 14 17 19 21 23 25 27 29 33 35 35 36 38 40 43 45 47 49
Height
5792 5783 5774 5765 5753 5740 5727 5713 5698 5681 5663 5648 5634 5622 5612 5602 5591 5581 5572 5562 5552 5542 5533 5525 5517 5510 5504 5498 5493 5487 5481 5475 5469 5464 5458 5453 5448 5443 5437 5432 5426 5422 5419 5418
5786 5776 5767 5755 5743 5730 5716 5703 5687 5669 5656 5640 5625 5613 5604 5595 5585 5575 5565 5555 5545 5536 5527 5519 5512 5505 5499 5492 5485 5479 5473 5467 5461 5455 5450 5444 5440 5435 5431 5426 5422 5418 5416 5415
5779 5768 5758 5746 5733 5720 5706 5690 5674 5659 5645 5628 5615 5605 5598 5588 5578 5569 5559 5549 5539 5529 5521 5513 5505 5498 5491 5484 5477 5470 5464 5457 5451 5445 5440 5435 5431 5426 5423 5419 5415 5412 5410 5410
5770 5761 5749 5740 5724 5709 5695 5680 5663 5646 5632 5619 5607 5598 5588 5579 5571 5562 5553 5543 5533 5523 5514 5506 5497 5489 5481 5474 5467 5460 5453 5447 5441 5435 5429 5424 5420 5416 5413 5410 5407 5405 5405 5405
5760 5750 5739 5728 5713 5699 5684 5671 5654 5639 5625 5616 5606 5593 5583 5574 5565 5555 5546 5536 5525 5515 5506 5497 5488 5480 5471 5463 5455 5447 5440 5434 5428 5422 5417 5412 5408 5404 5401 5400 5398 5396 5396 5396
5751 5739 5729 5719 5704 5689 5675 5660 5645 5630 5619 5609 5600 5592 5581 5570 5560 5550 5540 5530 5519 5508 5497 5487 5478 5468 5459 5449 5441 5432 5425 5419 5412 5407 5403 5399 5395 5391 5389 5387 5386 5386 5385 5385
5742 5731 5720 5708 5695 5681 5669 5655 5638 5624 5613 5602 5591 5583 5573 5563 5553 5543 5533 5522 5511 5499 5487 5476 5466 5456 5445 5435 5425 5416 5408 5401 5395 5390 5386 5382 5380 5377 5374 5372 5372 5372 5372 5372
5733 5722 5714 5700 5687 5674 5660 5643 5630 5618 5607 5597 5587 5577 5567 5557 5547 5536 5525 5514 5502 5490 5478 5466 5454 5443 5431 5420 5408 5398 5389 5381 5375 5370 5367 5363 5361 5359 5357 5355 5356 5356 5357 5358
5726 5717 5703 5690 5678 5664 5648 5634 5621 5610 5601 5592 5583 5573 5563 5552 5541 5529 5517 5505 5493 5480 5467 5454 5442 5430 5418 5406 5395 5384 5374 5364 5356 5350 5346 5343 5341 5340 5337 5337 5337 5339 5340 5342
5718 5707 5694 5681 5668 5654 5640 5626 5614 5605 5596 5586 5577 5568 5557 5546 5534 5522 5509 5497 5484 5471 5459 5447 5435 5423 5411 5398 5386 5374 5363 5353 5344 5336 5330 5325 5321 5320 5319 5317 5318 5319 5321 5323
5711 5699 5687 5674 5660 5648 5633 5620 5608 5599 5590 5582 5572 5562 5551 5540 5527 5514 5502 5488 5477 5466 5455 5443 5431 5419 5407 5394 5381 5368 5356 5345 5336 5328 5321 5315 5309 5304 5301 5298 5298 5300 5301 5303
5704 5692 5681 5668 5654 5641 5627 5614 5602 5593 5586 5577 5567 5557 5544 5533 5520 5508 5495 5484 5474 5464 5453 5442 5430 5418 5405 5391 5378 5366 5353 5342 5332 5323 5315 5308 5301 5294 5288 5284 5282 5280 5281 5283
5695 5684 5673 5660 5647 5634 5620 5608 5597 5589 5582 5574 5564 5552 5540 5527 5515 5502 5491 5482 5473 5464 5454 5442 5430 5417 5404 5391 5377 5364 5352 5341 5330 5320 5312 5304 5296 5289 5281 5275 5269 5266 5265 5264
5687 5675 5664 5652 5640 5627 5614 5602 5592 5585 5577 5568 5558 5546 5534 5522 5510 5499 5491 5483 5474 5463 5453 5442 5430 5417 5404 5390 5376 5363 5351 5339 5328 5318 5309 5300 5291 5283 5276 5269 5263 5257 5253 5250
5680 5669 5658 5646 5633 5622 5609 5597 5588 5581 5574 5564 5553 5541 5529 5517 5507 5500 5492 5483 5473 5462 5452 5441 5430 5417 5404 5390 5376 5363 5351 5339 5327 5315 5305 5295 5286 5278 5270 5263 5256 5250 5245 5241
5672 5662 5651 5640 5627 5615 5603 5593 5584 5577 5569 5560 5548 5536 5525 5515 5507 5500 5492 5484 5474 5464 5454 5442 5430 5418 5404 5390 5377 5363 5349 5335 5323 5312 5301 5290 5280 5271 5263 5256 5249 5243 5238 5233
5664 5654 5642 5632 5621 5609 5599 5590 5581 5574 5565 5555 5544 5534 5523 5514 5507 5499 5492 5484 5474 5464 5454 5442 5430 5418 5405 5392 5377 5362 5348 5335 5323 5310 5296 5284 5273 5264 5256 5248 5241 5235 5229 5225
5657 5647 5637 5627 5616 5605 5596 5587 5579 5571 5561 5552 5541 5531 5522 5515 5508 5500 5493 5484 5474 5463 5453 5442 5430 5418 5406 5391 5376 5361 5348 5335 5321 5307 5293 5280 5268 5258 5249 5240 5232 5226 5220 5215
5651 5641 5632 5622 5611 5601 5592 5584 5576 5567 5558 5548 5539 5529 5521 5516 5509 5502 5494 5485 5476 5466 5455 5444 5433 5420 5406 5392 5378 5364 5348 5332 5317 5303 5289 5276 5264 5252 5242 5232 5223 5216 5211 5206
5644 5635 5626 5616 5605 5596 5588 5580 5573 5565 5555 5545 5536 5526 5520 5515 5508 5502 5494 5486 5477 5467 5456 5446 5435 5422 5409 5396 5381 5362 5346 5332 5318 5304 5289 5274 5261 5250 5238 5227 5217 5210 5204 5199
5637 5629 5621 5610 5600 5592 5584 5577 5570 5561 5552 5543 5534 5526 5521 5515 5509 5502 5494 5486 5477 5468 5458 5448 5437 5425 5413 5398 5382 5366 5351 5337 5323 5309 5293 5277 5263 5250 5238 5226 5216 5207 5201 5195
5631 5623 5614 5604 5596 5589 5582 5574 5567 5558 5548 5539 5531 5525 5521 5516 5510 5502 5494 5487 5478 5470 5460 5450 5439 5427 5415 5401 5387 5372 5357 5343 5330 5316 5301 5285 5270 5256 5244 5231 5219 5210 5202 5196
5625 5617 5609 5600 5593 5586 5579 5571 5563 5555 5546 5538 5529 5524 5519 5515 5509 5503 5495 5487 5479 5470 5461 5451 5441 5430 5419 5407 5394 5380 5365 5351 5338 5325 5312 5297 5283 5268 5254 5241 5229 5218 5209 5201
5619 5612 5604 5596 5590 5583 5576 5568 5559 5550 5542 5535 5528 5524 5520 5515 5509 5502 5495 5487 5479 5471 5462 5453 5444 5434 5425 5414 5402 5388 5374 5360 5348 5335 5322 5309 5295 5282 5269 5257 5245 5233 5223 5215
5613 5605 5598 5591 5585 5579 5572 5565 5557 5548 5540 5532 5527 5523 5519 5514 5509 5503 5496 5488 5481 5473 5465 5456 5447 5439 5430 5420 5408 5395 5383 5370 5357 5345 5332 5320 5309 5297 5286 5274 5263 5253 5244 5235
5606 5599 5592 5586 5582 5577 5569 5562 5554 5546 5539 5532 5527 5523 5519 5515 5510 5504 5497 5490 5482 5475 5468 5459 5451 5443 5435 5425 5414 5403 5392 5380 5369 5355 5343 5332 5321 5311 5301 5290 5280 5271 5263 5255
5599 5593 5587 5582 5578 5572 5565 5558 5551 5543 5536 5530 5526 5523 5519 5515 5510 5505 5498 5491 5485 5478 5471 5463 5455 5447 5439 5430 5421 5411 5400 5390 5379 5368 5355 5344 5333 5324 5315 5305 5296 5288 5279 5272